Time,TemperatureF,DewpointF,PressureIn,WindDirection,WindDirectionDegrees,WindSpeedMPH,WindSpeedGustMPH,Humidity,HourlyPrecipIn,Conditions,Clouds,dailyrainin,SoftwareType,DateUTC
2013-01-28 00:13:00,51.9,46.0,30.11,SSE,157,3.0,12.0,79,0.00,,,0.00,weatherlink.com 1.10,2013-01-28 06:13:00,
2013-01-28 00:28:00,51.9,46.0,30.11,South,172,4.0,12.0,79,0.00,,,0.00,weatherlink.com 1.10,2013-01-28 06:28:00,
2013-01-28 00:43:00,52.1,46.0,30.11,SSE,161,3.0,13.0,79,0.00,,,0.00,weatherlink.com 1.10,2013-01-28 06:43:00,
2013-01-28 00:58:00,52.3,46.0,30.11,South,172,4.0,14.0,79,0.00,,,0.00,weatherlink.com 1.10,2013-01-28 06:58:00,
2013-01-28 01:13:00,52.8,46.0,30.11,SE,134,5.0,11.0,78,0.00,,,0.00,weatherlink.com 1.10,2013-01-28 07:13:00,
2013-01-28 01:29:00,53.1,46.0,30.11,SSE,163,3.0,10.0,78,0.00,,,0.00,weatherlink.com 1.10,2013-01-28 07:29:00,
2013-01-28 01:44:00,53.4,46.0,30.11,SSE,150,4.0,11.0,77,0.00,,,0.00,weatherlink.com 1.10,2013-01-28 07:44:00,
2013-01-28 01:58:00,53.9,47.0,30.11,SSE,163,4.0,13.0,77,0.00,,,0.00,weatherlink.com 1.10,2013-01-28 07:58:00,
2013-01-28 02:14:00,54.2,46.0,30.11,SSE,164,8.0,12.0,75,0.00,,,0.00,weatherlink.com 1.10,2013-01-28 08:14:00,
2013-01-28 02:28:00,54.6,46.0,30.11,South,182,10.0,12.0,74,0.00,,,0.00,weatherlink.com 1.10,2013-01-28 08:28:00,
2013-01-28 02:44:00,54.7,46.0,30.11,SSE,148,5.0,13.0,73,0.00,,,0.00,weatherlink.com 1.10,2013-01-28 08:44:00,
2013-01-28 02:58:00,54.8,46.0,30.11,SSE,154,5.0,15.0,73,0.00,,,0.00,weatherlink.com 1.10,2013-01-28 08:58:00,
2013-01-28 03:14:00,54.8,46.0,30.11,SSE,154,3.0,13.0,72,0.00,,,0.00,weatherlink.com 1.10,2013-01-28 09:14:00,
2013-01-28 03:28:00,54.6,46.0,30.11,South,172,4.0,13.0,72,0.00,,,0.00,weatherlink.com 1.10,2013-01-28 09:28:00,
2013-01-28 03:44:00,54.5,46.0,30.10,SSE,154,7.0,11.0,72,0.00,,,0.00,weatherlink.com 1.10,2013-01-28 09:44:00,
2013-01-28 03:59:00,54.5,45.0,30.10,SSE,148,2.0,12.0,71,0.00,,,0.00,weatherlink.com 1.10,2013-01-28 09:59:00,
2013-01-28 04:13:00,54.4,45.0,30.10,South,182,8.0,15.0,71,0.00,,,0.00,weatherlink.com 1.10,2013-01-28 10:13:00,
2013-01-28 04:29:00,54.5,45.0,30.10,South,172,7.0,16.0,71,0.00,,,0.00,weatherlink.com 1.10,2013-01-28 10:29:00,
2013-01-28 04:43:00,54.6,46.0,30.10,SSE,153,8.0,13.0,72,0.00,,,0.00,weatherlink.com 1.10,2013-01-28 10:43:00,
2013-01-28 04:59:00,54.9,46.0,30.10,South,172,6.0,11.0,72,0.00,,,0.00,weatherlink.com 1.10,2013-01-28 10:59:00,
2013-01-28 05:14:00,55.1,47.0,30.10,South,172,5.0,8.0,73,0.00,,,0.00,weatherlink.com 1.10,2013-01-28 11:14:00,
2013-01-28 05:29:00,55.2,47.0,30.09,SSE,153,2.0,7.0,74,0.00,,,0.00,weatherlink.com 1.10,2013-01-28 11:29:00,
2013-01-28 05:44:00,55.8,48.0,30.09,SSW,209,6.0,10.0,76,0.00,,,0.00,weatherlink.com 1.10,2013-01-28 11:44:00,
2013-01-28 05:59:00,54.7,50.0,30.10,SSE,164,5.0,9.0,84,0.01,,,0.01,weatherlink.com 1.10,2013-01-28 11:59:00,
2013-01-28 06:14:00,53.4,50.0,30.10,South,177,2.0,8.0,87,0.01,,,0.01,weatherlink.com 1.10,2013-01-28 12:14:00,
2013-01-28 06:29:00,53.2,50.0,30.10,SSE,166,1.0,7.0,89,0.03,,,0.03,weatherlink.com 1.10,2013-01-28 12:29:00,
2013-01-28 06:44:00,53.4,51.0,30.10,South,172,3.0,10.0,90,0.07,,,0.07,weatherlink.com 1.10,2013-01-28 12:44:00,
2013-01-28 06:59:00,53.5,51.0,30.11,SSE,163,4.0,9.0,92,0.10,,,0.11,weatherlink.com 1.10,2013-01-28 12:59:00,
2013-01-28 07:14:00,53.5,51.0,30.11,SSE,167,2.0,7.0,92,0.10,,,0.11,weatherlink.com 1.10,2013-01-28 13:14:00,
2013-01-28 07:29:00,53.9,52.0,30.11,SSE,156,8.0,10.0,92,0.08,,,0.11,weatherlink.com 1.10,2013-01-28 13:29:00,
2013-01-28 07:44:00,54.4,52.0,30.11,South,177,7.0,11.0,92,0.04,,,0.11,weatherlink.com 1.10,2013-01-28 13:44:00,
2013-01-28 07:59:00,54.4,52.0,30.11,SSW,203,3.0,12.0,92,0.01,,,0.12,weatherlink.com 1.10,2013-01-28 13:59:00,
2013-01-28 08:14:00,54.3,52.0,30.12,South,182,4.0,9.0,92,0.01,,,0.12,weatherlink.com 1.10,2013-01-28 14:14:00,
2013-01-28 08:29:00,54.4,53.0,30.11,South,182,4.0,8.0,93,0.01,,,0.12,weatherlink.com 1.10,2013-01-28 14:29:00,
2013-01-28 08:44:00,54.7,53.0,30.12,SE,144,2.0,10.0,93,0.01,,,0.12,weatherlink.com 1.10,2013-01-28 14:44:00,
2013-01-28 08:59:00,54.7,53.0,30.11,South,172,3.0,12.0,93,0.00,,,0.12,weatherlink.com 1.10,2013-01-28 14:59:00,
2013-01-28 09:14:00,54.6,53.0,30.12,SSE,159,7.0,12.0,93,0.00,,,0.12,weatherlink.com 1.10,2013-01-28 15:14:00,
2013-01-28 09:29:00,54.5,53.0,30.12,SSE,154,4.0,12.0,93,0.00,,,0.12,weatherlink.com 1.10,2013-01-28 15:29:00,
2013-01-28 09:44:00,54.5,53.0,30.12,SSE,167,1.0,9.0,93,0.00,,,0.12,weatherlink.com 1.10,2013-01-28 15:44:00,
2013-01-28 09:59:00,54.7,53.0,30.13,SW,222,5.0,9.0,93,0.00,,,0.12,weatherlink.com 1.10,2013-01-28 15:59:00,
2013-01-28 10:14:00,54.9,53.0,30.13,SSE,161,7.0,10.0,93,0.00,,,0.12,weatherlink.com 1.10,2013-01-28 16:14:00,
2013-01-28 10:29:00,55.2,53.0,30.13,SE,146,2.0,12.0,93,0.00,,,0.12,weatherlink.com 1.10,2013-01-28 16:29:00,
2013-01-28 10:44:00,55.6,53.0,30.13,South,188,5.0,13.0,92,0.00,,,0.12,weatherlink.com 1.10,2013-01-28 16:44:00,
2013-01-28 10:59:00,55.8,54.0,30.12,SW,224,5.0,11.0,92,0.00,,,0.12,weatherlink.com 1.10,2013-01-28 16:59:00,
2013-01-28 11:14:00,56.0,54.0,30.12,ESE,111,1.0,10.0,92,0.00,,,0.12,weatherlink.com 1.10,2013-01-28 17:14:00,
2013-01-28 11:29:00,56.4,54.0,30.11,South,172,10.0,12.0,92,0.00,,,0.12,weatherlink.com 1.10,2013-01-28 17:29:00,
2013-01-28 11:44:00,56.9,55.0,30.11,South,177,4.0,13.0,92,0.00,,,0.12,weatherlink.com 1.10,2013-01-28 17:44:00,
2013-01-28 11:59:00,57.2,55.0,30.10,SSE,148,5.0,12.0,91,0.00,,,0.12,weatherlink.com 1.10,2013-01-28 17:59:00,
2013-01-28 12:14:00,57.4,55.0,30.09,SE,128,5.0,14.0,91,0.00,,,0.12,weatherlink.com 1.10,2013-01-28 18:14:00,
2013-01-28 12:29:00,57.4,55.0,30.08,SE,142,2.0,13.0,92,0.00,,,0.12,weatherlink.com 1.10,2013-01-28 18:29:00,
2013-01-28 12:44:00,57.3,55.0,30.08,SSE,159,4.0,10.0,93,0.00,,,0.12,weatherlink.com 1.10,2013-01-28 18:44:00,
2013-01-28 12:59:00,57.5,56.0,30.07,SE,146,3.0,11.0,93,0.00,,,0.12,weatherlink.com 1.10,2013-01-28 18:59:00,
2013-01-28 13:14:00,57.5,56.0,30.06,SSE,154,4.0,13.0,94,0.00,,,0.12,weatherlink.com 1.10,2013-01-28 19:14:00,
2013-01-28 13:29:00,58.0,56.0,30.05,SSW,201,1.0,11.0,93,0.00,,,0.12,weatherlink.com 1.10,2013-01-28 19:29:00,
2013-01-28 13:44:00,58.3,56.0,30.05,SSE,157,7.0,12.0,92,0.00,,,0.12,weatherlink.com 1.10,2013-01-28 19:44:00,
2013-01-28 13:59:00,58.6,56.0,30.05,SSE,161,6.0,11.0,92,0.00,,,0.12,weatherlink.com 1.10,2013-01-28 19:59:00,
2013-01-28 14:15:00,59.2,57.0,30.04,South,172,7.0,13.0,92,0.00,,,0.12,weatherlink.com 1.10,2013-01-28 20:15:00,
2013-01-28 14:29:00,59.8,57.0,30.04,SSE,159,7.0,11.0,91,0.00,,,0.12,weatherlink.com 1.10,2013-01-28 20:29:00,
2013-01-28 14:45:00,60.2,57.0,30.04,South,177,3.0,13.0,90,0.00,,,0.12,weatherlink.com 1.10,2013-01-28 20:45:00,
2013-01-28 15:00:00,60.4,58.0,30.04,SSW,194,6.0,11.0,90,0.00,,,0.12,weatherlink.com 1.10,2013-01-28 21:00:00,
2013-01-28 15:15:00,60.5,58.0,30.04,SSE,150,4.0,10.0,90,0.00,,,0.12,weatherlink.com 1.10,2013-01-28 21:15:00,
2013-01-28 15:30:00,60.7,58.0,30.04,South,187,5.0,12.0,90,0.00,,,0.12,weatherlink.com 1.10,2013-01-28 21:30:00,
2013-01-28 15:45:00,61.1,58.0,30.04,SSE,164,3.0,8.0,89,0.00,,,0.12,weatherlink.com 1.10,2013-01-28 21:45:00,
2013-01-28 16:00:00,61.4,58.0,30.04,SE,142,7.0,12.0,89,0.00,,,0.12,weatherlink.com 1.10,2013-01-28 22:00:00,
2013-01-28 16:15:00,62.0,59.0,30.04,South,172,3.0,10.0,88,0.00,,,0.12,weatherlink.com 1.10,2013-01-28 22:15:00,
2013-01-28 16:30:00,61.9,58.0,30.04,SE,130,4.0,10.0,88,0.00,,,0.12,weatherlink.com 1.10,2013-01-28 22:30:00,
2013-01-28 16:45:00,61.7,58.0,30.04,SE,134,2.0,9.0,88,0.00,,,0.12,weatherlink.com 1.10,2013-01-28 22:45:00,
2013-01-28 17:00:00,61.5,58.0,30.04,SSE,154,5.0,10.0,88,0.00,,,0.12,weatherlink.com 1.10,2013-01-28 23:00:00,
2013-01-28 17:15:00,61.3,58.0,30.03,SSE,158,3.0,9.0,88,0.00,,,0.12,weatherlink.com 1.10,2013-01-28 23:15:00,
2013-01-28 17:30:00,61.1,58.0,30.04,SSE,148,4.0,8.0,88,0.00,,,0.12,weatherlink.com 1.10,2013-01-28 23:30:00,
2013-01-28 17:45:00,61.3,58.0,30.04,SSE,164,5.0,11.0,88,0.00,,,0.12,weatherlink.com 1.10,2013-01-28 23:45:00,
2013-01-28 18:00:00,61.4,58.0,30.04,SE,138,1.0,6.0,88,0.00,,,0.12,weatherlink.com 1.10,2013-01-29 00:00:00,
2013-01-28 18:15:00,61.9,58.0,30.04,SE,146,0.0,8.0,88,0.00,,,0.12,weatherlink.com 1.10,2013-01-29 00:15:00,
2013-01-28 18:30:00,62.2,58.0,30.04,SE,140,3.0,5.0,87,0.00,,,0.12,weatherlink.com 1.10,2013-01-29 00:30:00,
2013-01-28 18:45:00,62.0,58.0,30.04,SE,125,0.0,4.0,87,0.00,,,0.12,weatherlink.com 1.10,2013-01-29 00:45:00,
2013-01-28 19:00:00,61.7,58.0,30.04,ESE,120,1.0,6.0,87,0.00,,,0.12,weatherlink.com 1.10,2013-01-29 01:00:00,
2013-01-28 19:15:00,61.8,58.0,30.04,SE,126,1.0,4.0,87,0.00,,,0.12,weatherlink.com 1.10,2013-01-29 01:15:00,
2013-01-28 19:30:00,61.8,58.0,30.04,SSE,159,2.0,7.0,86,0.00,,,0.12,weatherlink.com 1.10,2013-01-29 01:30:00,
2013-01-28 19:45:00,61.7,58.0,30.03,South,172,2.0,7.0,86,0.00,,,0.12,weatherlink.com 1.10,2013-01-29 01:45:00,
2013-01-28 20:00:00,61.6,57.0,30.03,East,90,3.0,9.0,85,0.00,,,0.12,weatherlink.com 1.10,2013-01-29 02:00:00,
2013-01-28 20:15:00,61.4,57.0,30.03,SE,139,4.0,7.0,84,0.00,,,0.12,weatherlink.com 1.10,2013-01-29 02:15:00,
2013-01-28 20:30:00,61.3,57.0,30.04,ESE,116,3.0,8.0,84,0.00,,,0.12,weatherlink.com 1.10,2013-01-29 02:30:00,
2013-01-28 20:45:00,61.3,57.0,30.04,SE,141,2.0,7.0,84,0.00,,,0.12,weatherlink.com 1.10,2013-01-29 02:45:00,
2013-01-28 21:00:00,60.7,56.0,30.04,SSE,151,3.0,8.0,84,0.00,,,0.12,weatherlink.com 1.10,2013-01-29 03:00:00,
2013-01-28 21:15:00,60.1,56.0,30.04,ESE,118,2.0,7.0,85,0.00,,,0.12,weatherlink.com 1.10,2013-01-29 03:15:00,
2013-01-28 21:30:00,59.7,56.0,30.04,SE,144,3.0,8.0,86,0.00,,,0.12,weatherlink.com 1.10,2013-01-29 03:30:00,
2013-01-28 21:45:00,59.4,55.0,30.03,SSE,161,2.0,12.0,86,0.00,,,0.12,weatherlink.com 1.10,2013-01-29 03:45:00,
2013-01-28 22:00:00,59.2,55.0,30.04,SE,127,1.0,10.0,86,0.00,,,0.12,weatherlink.com 1.10,2013-01-29 04:00:00,
2013-01-28 22:15:00,58.9,55.0,30.04,SE,146,1.0,7.0,87,0.00,,,0.12,weatherlink.com 1.10,2013-01-29 04:15:00,
2013-01-28 22:30:00,58.6,55.0,30.04,SE,144,3.0,7.0,87,0.00,,,0.12,weatherlink.com 1.10,2013-01-29 04:30:00,
2013-01-28 22:45:00,58.6,55.0,30.03,SE,142,2.0,8.0,87,0.00,,,0.12,weatherlink.com 1.10,2013-01-29 04:45:00,
2013-01-28 23:15:00,58.7,55.0,30.04,SSE,161,2.0,8.0,87,0.00,,,0.12,weatherlink.com 1.10,2013-01-29 05:15:00,
2013-01-28 23:30:00,58.6,55.0,30.03,SSE,157,4.0,9.0,88,0.00,,,0.12,weatherlink.com 1.10,2013-01-29 05:30:00,
2013-01-28 23:45:00,58.6,55.0,30.03,SSE,147,3.0,7.0,87,0.00,,,0.12,weatherlink.com 1.10,2013-01-29 05:45:00,